Weather History for KDSV - March, 2014

Change the Weather History Date:

Saturday, March 22, 2014

  Actual Average Record
Temperature  
Mean Temperature 40 °F -  
Max Temperature 46 °F 45 °F 79 °F (2012)
Min Temperature 33 °F 24 °F 6 °F (1988)
Degree Days  
Heating Degree Days 26    
Moisture  
Dew Point 26 °F    
Average Humidity 63    
Maximum Humidity 80    
Minimum Humidity 49    
Precipitation  
Precipitation 0.05 in - - ()
Sea Level Pressure  
Sea Level Pressure 29.93 in    
Wind  
Wind Speed 8 mph (West)    
Max Wind Speed 14 mph    
Max Gust Speed 30 mph    
Visibility 10 miles    
Events Rain    
Averages and records for this station are not official NWS values.
T = Trace of Precipitation, MM = Missing Value Source: NWS Daily Summary

Daily Weather History Graph

Daily Weather History Graph

Search for Another Location

Airport or City:

Trip Planner

Search our weather history database for the weather conditions in past years. The results will help you decide how hot, cold, wet, or windy it might be!

Date:

Astronomy

Mar. 22, 2014 Rise Set
Actual Time 7:10 AM EDT 7:25 PM EDT
Civil Twilight 6:42 AM EDT 7:53 PM EDT
Nautical Twilight 6:09 AM EDT 8:26 PM EDT
Astronomical Twilight 5:35 AM EDT 9:00 PM EDT
Moon 12:48 AM EDT (3/22) 10:46 AM EDT (3/22)
Length of Visible Light 13h 11m
Length of Day
12h 14m
Waning Gibbous, 65% of the Moon is Illuminated
Mar 22
Waning Gibbous
Mar 23
Last Quarter
Mar 30
New
Apr 7
First Quarter
Apr 15
Full

Hourly Weather History & Observations

Time (EDT) Temp. Windchill Dew Point Humidity Pressure Visibility Wind Dir Wind Speed Gust Speed Precip Events Conditions
12:54 AM 33.1 °F 26.1 °F 21.9 °F 64% 29.92 in 10.0 mi South 8.1 mph - N/A   Partly Cloudy
1:54 AM 35.1 °F 30.1 °F 21.9 °F 59% 29.86 in 10.0 mi South 5.8 mph - 0.00 in   Mostly Cloudy
2:54 AM 37.0 °F 33.3 °F 21.0 °F 52% 29.79 in 10.0 mi SSE 4.6 mph - 0.00 in   Overcast
3:54 AM 39.9 °F 35.8 °F 21.9 °F 49% 29.73 in 10.0 mi SE 5.8 mph - N/A   Overcast
4:54 AM 43.0 °F 37.2 °F 26.1 °F 51% 29.68 in 10.0 mi SE 10.4 mph - N/A   Mostly Cloudy
5:54 AM 45.0 °F 38.5 °F 28.0 °F 52% 29.63 in 10.0 mi SSE 13.8 mph 21.9 mph N/A   Scattered Clouds
6:54 AM 46.0 °F 43.1 °F 28.9 °F 51% 29.67 in 10.0 mi South 5.8 mph - N/A   Overcast
7:54 AM 43.0 °F 38.2 °F 37.0 °F 80% 29.70 in 10.0 mi South 8.1 mph - 0.05 in Rain Light Rain
8:14 AM 44.1 °F 40.1 °F 37.0 °F 76% 29.66 in 10.0 mi Variable 6.9 mph 18.4 mph 0.00 in Rain Light Rain
8:54 AM 44.1 °F 40.8 °F 37.0 °F 76% 29.72 in 10.0 mi WNW 5.8 mph - 0.00 in   Overcast
9:54 AM 43.0 °F 37.7 °F 36.0 °F 76% 29.77 in 10.0 mi West 9.2 mph 24.2 mph 0.00 in   Overcast
10:54 AM 41.0 °F 35.2 °F 33.1 °F 73% 29.84 in 9.0 mi West 9.2 mph 29.9 mph N/A   Overcast
11:54 AM 37.9 °F 30.0 °F 28.0 °F 68% 29.91 in 10.0 mi WNW 12.7 mph 26.5 mph N/A   Overcast
12:54 PM 37.0 °F 31.0 °F 27.0 °F 67% 29.96 in 10.0 mi West 8.1 mph 20.7 mph N/A   Overcast
1:54 PM 37.9 °F 31.5 °F 27.0 °F 65% 29.98 in 10.0 mi WNW 9.2 mph - N/A   Overcast
2:22 PM 37.9 °F 30.9 °F 26.1 °F 62% 29.94 in 10.0 mi NW 10.4 mph 19.6 mph N/A   Overcast
2:54 PM 37.9 °F 30.5 °F 26.1 °F 62% 29.99 in 10.0 mi WNW 11.5 mph 19.6 mph N/A   Overcast
3:54 PM 37.9 °F 30.9 °F 25.0 °F 60% 30.01 in 10.0 mi West 10.4 mph 19.6 mph N/A   Overcast
4:54 PM 37.9 °F 31.5 °F 25.0 °F 60% 30.03 in 10.0 mi NNW 9.2 mph 17.3 mph N/A   Overcast
5:54 PM 36.0 °F 27.1 °F 24.1 °F 62% 30.06 in 10.0 mi WNW 13.8 mph 18.4 mph N/A   Overcast
6:54 PM 35.1 °F 31.0 °F 24.1 °F 64% 30.08 in 10.0 mi WNW 4.6 mph - N/A   Overcast
7:22 PM 35.1 °F 29.3 °F 24.1 °F 64% 30.05 in 10.0 mi WNW 6.9 mph - N/A   Overcast
7:42 PM 34.0 °F 27.2 °F 23.0 °F 64% 30.06 in 10.0 mi WNW 8.1 mph - N/A   Overcast
7:54 PM 34.0 °F 28.0 °F 23.0 °F 64% 30.10 in 10.0 mi NW 6.9 mph - N/A   Overcast
8:35 PM 34.0 °F 31.0 °F 23.0 °F 64% 30.07 in 10.0 mi WNW 3.5 mph - N/A   Overcast
8:54 PM 34.0 °F 29.8 °F 23.0 °F 64% 30.12 in 10.0 mi NW 4.6 mph - N/A   Overcast
9:06 PM 34.0 °F 31.0 °F 23.0 °F 64% 30.08 in 10.0 mi North 3.5 mph - N/A   Overcast
9:54 PM 34.0 °F 31.0 °F 21.9 °F 61% 30.11 in 10.0 mi Variable 3.5 mph - N/A   Overcast
10:54 PM 34.0 °F 31.0 °F 23.0 °F 64% 30.12 in 10.0 mi Variable 3.5 mph - N/A   Overcast
11:54 PM 34.0 °F 31.0 °F 23.0 °F 64% 30.12 in 10.0 mi Variable 3.5 mph - N/A   Overcast